Regional Weather Roundup
Issued by NWS

Home | Current Version | Previous Version | Text Only | Print | Product List | Glossary On
Versions: 1 2 3 4 5 6 7 8 9 10 11 12 13 14 15 16 17 18 19 20 21 22 23 24 25 26 27 28 29 30 31 32 33 34 35 36 37 38 39 40 41 42 43 44 45 46 47 48 49 50
000
ASUS44 KFWD 251403
RWRTX
NORTH TEXAS HOURLY WEATHER ROUNDUP
NATIONAL WEATHER SERVICE FORT WORTH TX
800 AM CST SUN JAN 25 2015

NOTE: "FAIR" INDICATES FEW OR NO CLOUDS BELOW 12,000 FEET WITH NO
SIGNIFICANT WEATHER AND/OR OBSTRUCTIONS TO VISIBILITY.

TXZ118-119-251500-
DALLAS/FORT WORTH METROPLEX

CITY           SKY/WX    TMP DP  RH WIND       PRES   REMARKS
DFW AIRPORT    PTCLDY    47  35  63 NW13      29.99R
DALLAS LOVE    PTCLDY    43  36  76 NW6       30.00R WCI  39
FTW MEACHAM    CLEAR     46  35  65 W13       30.01R
DAL-EXECUTIVE  CLEAR     48  35  60 NW12      29.99R
FTW-ALLIANCE   PTCLDY    44  35  70 NW12      30.01R WCI  38
FTW-SPINKS     CLEAR     45  36  70 CALM      30.03R
ARLINGTON      CLEAR     48  34  58 NW12      30.00R
GRAND PRAIRIE  CLEAR     46  37  71 W9        30.02
ADDISON        CLEAR     43  34  70 W8        30.00R WCI  38
MESQUITE       CLEAR     45  36  70 W9        29.99R WCI  40
LANCASTER      CLEAR     47  34  61 NW16      30.00R WCI  40
$$

TXZ091>094-102>105-117-120-121-131>134-251500-
NORTH CENTRAL TEXAS

CITY           SKY/WX    TMP DP  RH WIND       PRES   REMARKS
SHRMAN/DENISON CLEAR     38  36  91 SW3       29.99R
BRIDGEPORT     CLEAR     44  36  74 W9        30.05R WCI  39
DECATUR        CLEAR     41  33  73 NW12      30.01R WCI  34
DENTON         CLEAR     43  34  70 W10       30.00R WCI  37
MCKINNEY       CLEAR     44  35  70 NW10      29.98R WCI  39
GREENVILLE     CLEAR     41  34  75 W6        29.97R WCI  37
ROCKWALL       CLEAR     44  36  73 NW8       29.96R WCI  39
TERRELL        CLEAR     44  36  73 NW12      29.98R WCI  38
WAXAHACHIE     CLEAR     43  37  78 W10       30.01R WCI  37
CLEBURNE       CLEAR     41  36  81 NW8       30.04R WCI  36
GRANBURY       CLEAR     46  36  68 W10       30.06R
$$

TXZ083>090-098>101-113>116-127>130-139>142-154-155-251500-
WESTERN NORTH TEXAS

CITY           SKY/WX    TMP DP  RH WIND       PRES   REMARKS
WICHITA FALLS  CLEAR     44  33  65 NW16      30.05R WCI  37
WF-KICKAPOO    CLEAR     39  28  64 NW10G32   30.07R WCI  32
VERNON         PTCLDY    41  29  62 NW8       30.11R WCI  36
ABILENE        PTCLDY    39  31  72 NW9       30.13R WCI  33
ABILENE-DYESS  PTCLDY    41  32  69 NW10      30.13R WCI  34
BRECKENRIDGE   CLEAR     42  33  70 W7        30.10R WCI  38
MINERAL WELLS  CLEAR     41  34  76 W7        30.05R WCI  36
STEPHENVILLE   PTCLDY    46  34  63 NW9       30.08R
COMANCHE       PTCLDY    44  35  71 NW10      30.07R WCI  38
BROWNWOOD      CLEAR     39  32  75 N6        30.09R WCI  35
COLEMAN        PTCLDY    46  35  67 N13       30.09R WCI  40
BRADY          CLEAR     43  34  70 NW9       30.09R WCI  37
$$

TXZ143>147-156>162-174-175-251500-
CENTRAL TEXAS

CITY           SKY/WX    TMP DP  RH WIND       PRES   REMARKS
WACO           CLEAR     39  34  82 NW7       30.02R WCI  34
WACO-TSTC      CLEAR     41  37  87 NW7       30.01R WCI  36
WACO-MCGREGOR  CLEAR     39  32  75 W5        30.03R WCI  36
CORSICANA      CLEAR     43  36  76 W13       30.00R WCI  36
MEXIA          CLEAR     43  36  75 W12       29.98S WCI  37
HEARNE         CLEAR     33  32  95 CALM      30.04R
CAMERON        CLEAR     43  37  79 SW7       30.03R WCI  38
TEMPLE         CLEAR     45  34  65 NW8       30.02R
KILLEEN        CLEAR     47  34  60 NW18      30.04R WCI  40
KILLEEN-SKYLRK CLEAR     46  30  53 NW12      30.01R
FORT HOOD      CLEAR     46  35  66 MISG      30.03R
HAMILTON       CLEAR     45  34  65 NW14      30.04R WCI  38
LAMPASAS       CLEAR     45  35  67 NW7       30.04R
$$

TXZ095>097-106>112-122>126-135>138-148>153-164>167-251500-
EAST TEXAS

CITY           SKY/WX    TMP DP  RH WIND       PRES   REMARKS
PARIS          CLEAR     45  36  70 NW9       29.93R WCI  40
SULPHUR SPRNGS CLEAR     45  36  72 W13       29.97R WCI  38
MOUNT PLEASANT CLEAR     44  37  74 W9        29.93R WCI  39
GILMER         CLEAR     44  36  72 W5        29.92R
MINEOLA        CLEAR     45  37  76 W6        29.95R
TYLER          CLEAR     44  36  73 W8        29.95R WCI  39
LONGVIEW       CLEAR     45  35  68 W9        29.92F
MARSHALL       CLEAR     38  35  91 S3        29.93F
PALESTINE      CLEAR     35  34  97 CALM      29.99R
HENDERSON      CLEAR     35  34  97 CALM      29.94F
NACOGDOCHES    CLEAR     37  34  87 CALM      29.97R
LUFKIN         CLEAR     42  35  76 CALM      29.97S
$$

SUPPLEMENTAL OBSERVATIONS (CENTRAL)

CITY           SKY/WX    TMP DP  RH WIND       PRES   REMARKS
$$

SUPPLEMENTAL OBSERVATIONS (WEST)

CITY           SKY/WX    TMP DP  RH WIND       PRES   REMARKS
$$

SUPPLEMENTAL OBSERVATIONS (EAST)

CITY           SKY/WX    TMP DP  RH WIND       PRES   REMARKS
$$

SUPPLEMENTAL OBSERVATIONS ARE A COLLECTION OF AUTOMATED INSTRUMENTS
THAT ARE MAINTAINED BY A VARIETY OF FEDERAL AND STATE AGENCIES.
CERTAIN ELEMENTS...SUCH AS HUMIDITY VALUES AND SUSTAINED WIND
SPEEDS...MAY BE APPROXIMATED.



USA.gov is the U.S. government's official web portal to all federal, state and local government web resources and services.